Location: Augustenthal
(51.7167°N, 10.2833°E)
Time: 23:10:28
(UTC+00:00)

Nadezhda 3 Rocket - Pass Details

Date: 18 May 2021
Orbit: 956 x 1000 km, 82.9° (Epoch: 24 June)

Event Time Altitude Azimuth Distance (km) Brightness Sun altitude
Exits shadow 22:06:44 26° 164° (SSE) 1,795 4.8 -17.0°
Maximum altitude 22:10:13 61° 94° (E) 1,096 4.1 -17.1°
Drops below altitude 10° 22:16:18 10° 16° (NNE) 2,710 7.2 -17.4°
Sets 22:18:49 0° 13° (NNE) 3,657 8.2 -17.5°
